Location: Newark
(34.9471°N, 136.1778°E)
Time: 09:39:08
(UTC+00:00)

XW-2C - Pass Details

Date: 25 February 2020
Orbit: 509 x 527 km, 97.5° (Epoch: 07 April)

Event Time Altitude Azimuth Distance (km) Brightness Sun altitude
Rises 20:19:57 0° 22° (NNE) 2,641 ? -15.1°
Reaches altitude 10° 20:22:12 10° 31° (NNE) 1,752 ? -14.6°
Maximum altitude 20:25:40 34° 98° (E) 870 ? -13.9°
Drops below altitude 10° 20:29:07 10° 164° (SSE) 1,750 ? -13.2°
Sets 20:31:21 0° 174° (S) 2,636 ? -12.7°
